• In Belarus
  • List of Countries
  • For 7 days
  • Water Temperature
  • Weather Map
  • Weather Widgets
  • user-avatar
    Login

    Hourly Weather Lozenec

    Today, 20 August, Tuesday

    Time Temperature Precipitation Wind Pressure Humidity
    00:00 +18°C° 0 mm 2 mps 761 mmHg 86%
    01:00 +18°C° 0 mm 2 mps 761 mmHg 86%
    02:00 +18°C° 0 mm 2 mps 761 mmHg 87%
    03:00 +18°C° 0 mm 2 mps 761 mmHg 88%
    04:00 +18°C° 0 mm 2 mps 761 mmHg 89%
    05:00 +17°C° 0 mm 2 mps 761 mmHg 90%
    06:00 +19°C° 0 mm 3 mps 761 mmHg 82%
    07:00 +21°C° 0 mm 3 mps 761 mmHg 74%
    08:00 +23°C° 0 mm 4 mps 761 mmHg 67%
    09:00 +26°C° 0 mm 4 mps 761 mmHg 61%
    10:00 +27°C° 0 mm 5 mps 761 mmHg 56%
    11:00 +29°C° 0 mm 5 mps 761 mmHg 50%
    12:00 +29°C° 0 mm 5 mps 761 mmHg 49%
    13:00 +29°C° 0 mm 5 mps 761 mmHg 47%
    14:00 +29°C° 0 mm 5 mps 761 mmHg 46%
    15:00 +29°C° 0 mm 5 mps 761 mmHg 48%
    16:00 +29°C° 0 mm 5 mps 761 mmHg 50%
    17:00 +28°C° 0 mm 5 mps 760 mmHg 53%
    18:00 +26°C° 0 mm 4 mps 761 mmHg 64%
    19:00 +24°C° 0 mm 3 mps 761 mmHg 75%
    20:00 +21°C° 0 mm 2 mps 761 mmHg 87%
    21:00 +21°C° 0 mm 2 mps 761 mmHg 87%
    22:00 +20°C° 0 mm 2 mps 760 mmHg 87%
    23:00 +20°C° 0 mm 2 mps 760 mmHg 88%

    Tomorrow, 21 August, Wednesday

    Time Temperature Precipitation Wind Pressure Humidity
    00:00 +20°C° 0 mm 2 mps 760 mmHg 89%
    01:00 +20°C° 0 mm 3 mps 760 mmHg 90%
    02:00 +19°C° 0 mm 3 mps 760 mmHg 91%
    03:00 +19°C° 0 mm 3 mps 759 mmHg 88%
    04:00 +19°C° 0 mm 3 mps 759 mmHg 86%
    05:00 +19°C° 0 mm 3 mps 759 mmHg 84%
    06:00 +21°C° 0 mm 4 mps 759 mmHg 73%
    07:00 +23°C° 0 mm 4 mps 759 mmHg 62%
    08:00 +26°C° 0 mm 4 mps 759 mmHg 51%
    09:00 +28°C° 0 mm 5 mps 759 mmHg 48%
    10:00 +30°C° 0 mm 5 mps 759 mmHg 45%
    11:00 +32°C° 0 mm 5 mps 759 mmHg 41%
    12:00 +33°C° 0 mm 6 mps 759 mmHg 41%
    13:00 +33°C° 0 mm 6 mps 759 mmHg 42%
    14:00 +34°C° 0 mm 6 mps 758 mmHg 42%
    15:00 +32°C° 0 mm 6 mps 758 mmHg 49%
    16:00 +30°C° 0 mm 5 mps 758 mmHg 57%
    17:00 +29°C° 0 mm 5 mps 758 mmHg 65%
    18:00 +28°C° 0 mm 4 mps 758 mmHg 74%
    19:00 +26°C° 0 mm 3 mps 758 mmHg 82%
    20:00 +24°C° 0 mm 2 mps 758 mmHg 91%
    21:00 +24°C° 0 mm 2 mps 759 mmHg 92%
    22:00 +24°C° 0 mm 2 mps 759 mmHg 93%
    23:00 +23°C° 0 mm 2 mps 759 mmHg 94%

    Day after tomorrow, 22 August, Thursday

    Time Temperature Precipitation Wind Pressure Humidity
    00:00 +23°C° 0 mm 2 mps 759 mmHg 94%
    01:00 +22°C° 0 mm 3 mps 758 mmHg 94%
    02:00 +22°C° 0 mm 3 mps 758 mmHg 94%
    03:00 +22°C° 0 mm 3 mps 758 mmHg 93%
    04:00 +21°C° 0 mm 3 mps 758 mmHg 91%
    05:00 +21°C° 0 mm 3 mps 758 mmHg 90%
    06:00 +23°C° 0 mm 4 mps 758 mmHg 78%
    07:00 +26°C° 0 mm 5 mps 759 mmHg 65%
    08:00 +28°C° 0 mm 5 mps 759 mmHg 53%
    09:00 +30°C° 0 mm 6 mps 759 mmHg 48%
    10:00 +32°C° 0 mm 6 mps 759 mmHg 43%
    11:00 +34°C° 0 mm 7 mps 759 mmHg 38%
    12:00 +34°C° 0 mm 7 mps 759 mmHg 38%
    13:00 +34°C° 0 mm 7 mps 759 mmHg 38%
    14:00 +34°C° 0 mm 7 mps 759 mmHg 38%
    15:00 +33°C° 0 mm 7 mps 759 mmHg 40%
    16:00 +32°C° 0 mm 6 mps 759 mmHg 43%
    17:00 +30°C° 0 mm 6 mps 759 mmHg 45%
    18:00 +28°C° 0 mm 4 mps 759 mmHg 55%
    19:00 +26°C° 0 mm 3 mps 759 mmHg 66%
    20:00 +24°C° 0 mm 2 mps 760 mmHg 76%
    21:00 +23°C° 0 mm 2 mps 760 mmHg 76%
    22:00 +22°C° 0 mm 3 mps 760 mmHg 77%
    23:00 +22°C° 0 mm 3 mps 760 mmHg 77%

    23 August, Friday

    Time Temperature Precipitation Wind Pressure Humidity
    00:00 +22°C° 0 mm 3 mps 760 mmHg 74%
    01:00 +22°C° 0 mm 4 mps 759 mmHg 71%
    02:00 +22°C° 0 mm 4 mps 759 mmHg 68%
    03:00 +22°C° 0 mm 4 mps 759 mmHg 69%
    04:00 +22°C° 0 mm 5 mps 759 mmHg 70%
    05:00 +22°C° 0 mm 5 mps 759 mmHg 71%
    06:00 +23°C° 0 mm 6 mps 760 mmHg 68%
    07:00 +26°C° 0 mm 6 mps 760 mmHg 64%
    08:00 +27°C° 0 mm 7 mps 760 mmHg 61%
    09:00 +29°C° 0 mm 7 mps 760 mmHg 56%
    10:00 +30°C° 0 mm 7 mps 760 mmHg 52%
    11:00 +32°C° 0 mm 7 mps 760 mmHg 48%
    12:00 +32°C° 0 mm 7 mps 760 mmHg 49%
    13:00 +32°C° 0 mm 7 mps 760 mmHg 49%
    14:00 +33°C° 0 mm 7 mps 760 mmHg 50%
    15:00 +32°C° 0 mm 7 mps 760 mmHg 54%
    16:00 +30°C° 0 mm 7 mps 759 mmHg 58%
    17:00 +29°C° 0 mm 6 mps 759 mmHg 62%
    18:00 +28°C° 0 mm 5 mps 760 mmHg 71%
    19:00 +26°C° 0 mm 4 mps 760 mmHg 80%
    20:00 +23°C° 0 mm 4 mps 760 mmHg 89%
    21:00 +24°C° 0 mm 3 mps 760 mmHg 90%
    22:00 +24°C° 0 mm 3 mps 760 mmHg 91%
    23:00 +24°C° 0 mm 3 mps 760 mmHg 92%

    24 August, Saturday

    Time Temperature Precipitation Wind Pressure Humidity
    00:00 +24°C° 0 mm 3 mps 760 mmHg 92%
    01:00 +22°C° 0 mm 3 mps 760 mmHg 91%
    02:00 +22°C° 0 mm 3 mps 760 mmHg 91%
    03:00 +22°C° 0 mm 4 mps 760 mmHg 89%
    04:00 +22°C° 0 mm 5 mps 760 mmHg 87%
    05:00 +22°C° 0 mm 5 mps 760 mmHg 84%
    06:00 +24°C° 0 mm 6 mps 760 mmHg 79%
    07:00 +26°C° 0 mm 7 mps 760 mmHg 74%
    08:00 +28°C° 0 mm 8 mps 761 mmHg 69%
    09:00 +28°C° 0 mm 8 mps 761 mmHg 66%
    10:00 +29°C° 0 mm 8 mps 761 mmHg 63%
    11:00 +31°C° 0 mm 8 mps 761 mmHg 60%
    12:00 +31°C° 0 mm 8 mps 761 mmHg 59%
    13:00 +31°C° 0 mm 8 mps 761 mmHg 58%
    14:00 +31°C° 0 mm 8 mps 760 mmHg 57%
    15:00 +29°C° 0 mm 7 mps 760 mmHg 58%
    16:00 +28°C° 0 mm 7 mps 760 mmHg 59%
    17:00 +28°C° 0 mm 7 mps 760 mmHg 60%
    18:00 +26°C° 0 mm 6 mps 760 mmHg 70%
    19:00 +23°C° 0 mm 5 mps 760 mmHg 80%
    20:00 +21°C° 0 mm 4 mps 760 mmHg 90%
    21:00 +21°C° 0 mm 3 mps 760 mmHg 91%
    22:00 +21°C° 0 mm 3 mps 760 mmHg 92%
    23:00 +21°C° 0 mm 3 mps 760 mmHg 94%

    25 August, Sunday

    Time Temperature Precipitation Wind Pressure Humidity
    00:00 +21°C° 0 mm 3 mps 760 mmHg 94%
    01:00 +21°C° 0 mm 3 mps 760 mmHg 94%
    02:00 +21°C° 0 mm 3 mps 760 mmHg 95%
    03:00 +21°C° 0 mm 3 mps 760 mmHg 94%
    04:00 +20°C° 0 mm 4 mps 759 mmHg 94%
    05:00 +20°C° 0 mm 4 mps 759 mmHg 93%
    06:00 +22°C° 0 mm 4 mps 759 mmHg 85%
    07:00 +23°C° 0 mm 4 mps 759 mmHg 76%
    08:00 +26°C° 0 mm 5 mps 760 mmHg 68%
    09:00 +27°C° 0 mm 5 mps 759 mmHg 63%
    10:00 +29°C° 0 mm 6 mps 759 mmHg 59%
    11:00 +30°C° 0 mm 6 mps 759 mmHg 54%
    12:00 +32°C° 0 mm 6 mps 759 mmHg 55%
    13:00 +32°C° 0 mm 6 mps 758 mmHg 55%
    14:00 +32°C° 0 mm 6 mps 758 mmHg 55%
    15:00 +30°C° 0 mm 6 mps 758 mmHg 60%
    16:00 +30°C° 0 mm 6 mps 758 mmHg 64%
    17:00 +29°C° 0 mm 5 mps 757 mmHg 68%
    18:00 +27°C° 0 mm 5 mps 758 mmHg 77%
    19:00 +25°C° 0 mm 4 mps 758 mmHg 87%
    20:00 +24°C° 0 mm 3 mps 758 mmHg 96%
    21:00 +24°C° 0 mm 3 mps 758 mmHg 96%
    22:00 +24°C° 0 mm 3 mps 758 mmHg 96%
    23:00 +24°C° 0 mm 3 mps 758 mmHg 97%
    Show more